| time (UTC) | temp F | wind direction | speed knots | gust knots | rain 1hr in | rain 24hr in | rain mn in | humidity % | barometer mb |
| 20260507094557 | 30 | 298 | 0.0 | 0.0 | 0.00 | 0.00 | 0.00 | 100 | 1012.6 |
| 20260507093053 | 30 | 298 | 0.0 | 0.0 | 0.00 | 0.00 | 0.00 | 100 | 1012.7 |
| 20260507091535 | 30 | 298 | 0.0 | 0.0 | 0.00 | 0.00 | 0.00 | 100 | 1012.8 |
| 20260507090026 | 31 | 298 | 0.0 | 0.0 | 0.00 | 0.00 | 0.00 | 100 | 1012.9 |
| 20260507084503 | 31 | 298 | 0.0 | 0.0 | 0.00 | 0.00 | 0.00 | 100 | 1013.0 |
| 20260507083059 | 31 | 298 | 0.0 | 0.0 | 0.00 | 0.00 | 0.00 | 100 | 1013.0 |
| 20260507081536 | 31 | 298 | 0.0 | 0.0 | 0.00 | 0.00 | 0.00 | 100 | 1013.2 |
| 20260507080032 | 32 | 298 | 0.0 | 0.0 | 0.00 | 0.00 | 0.00 | 100 | 1013.2 |
| 20260507074516 | 32 | 298 | 0.0 | 0.0 | 0.00 | 0.00 | 0.00 | 100 | 1013.2 |
| 20260507073013 | 33 | 298 | 0.0 | 0.0 | 0.00 | 0.00 | 0.00 | 100 | 1013.3 |
| 20260507071506 | 33 | 298 | 0.0 | 0.0 | 0.00 | 0.00 | 0.00 | 100 | 1013.3 |
| 20260507070004 | 33 | 298 | 0.0 | 0.0 | 0.00 | 0.00 | 0.00 | 100 | 1013.5 |
| 20260507064634 | 33 | 298 | 0.0 | 0.0 | 0.00 | 0.00 | 0.00 | 100 | 1013.7 |
| 20260507063105 | 33 | 298 | 0.0 | 0.0 | 0.00 | 0.00 | 0.00 | 100 | 1013.8 |
| 20260507061550 | 33 | 298 | 0.0 | 0.0 | 0.00 | 0.00 | 0.00 | 100 | 1014.0 |
| 20260507060107 | 32 | 298 | 0.0 | 0.0 | 0.00 | 0.00 | 0.00 | 100 | 1014.0 |
| 20260507054547 | 32 | 298 | 0.0 | 0.0 | 0.00 | 0.00 | 0.00 | 100 | 1014.2 |
| 20260507053019 | 32 | 298 | 0.0 | 0.0 | 0.00 | 0.00 | 0.00 | 100 | 1014.2 |
| 20260507051515 | 33 | 298 | 0.0 | 0.0 | 0.00 | 0.00 | 0.00 | 100 | 1014.1 |
| 20260507050059 | 33 | 298 | 0.0 | 0.0 | 0.00 | 0.00 | 0.00 | 100 | 1014.2 |
| 20260507044558 | 34 | 298 | 0.0 | 0.0 | 0.00 | 0.00 | 0.00 | 100 | 1014.1 |
| 20260507043052 | 34 | 298 | 0.0 | 0.0 | 0.00 | 0.00 | 0.00 | 100 | 1014.1 |
| 20260507041547 | 35 | 298 | 0.0 | 0.0 | 0.00 | 0.00 | 0.00 | 100 | 1014.3 |
| 20260507040041 | 35 | 298 | 0.0 | 0.0 | 0.00 | 0.00 | 0.00 | 100 | 1014.2 |
| 20260507034538 | 35 | 298 | 0.0 | 0.0 | 0.00 | 0.00 | 0.00 | 100 | 1014.3 |
| 20260507033034 | 35 | 298 | 0.0 | 0.0 | 0.00 | 0.00 | 0.00 | 100 | 1014.4 |
| 20260507031528 | 34 | 298 | 0.0 | 0.0 | 0.00 | 0.00 | 0.00 | 100 | 1014.5 |
| 20260507030021 | 34 | 298 | 0.0 | 0.0 | 0.00 | 0.00 | 0.00 | 100 | 1014.5 |
| 20260507024513 | 34 | 298 | 0.0 | 0.0 | 0.00 | 0.00 | 0.00 | 100 | 1014.4 |
| 20260507023003 | 36 | 298 | 0.0 | 0.0 | 0.00 | 0.00 | 0.00 | 11 | 1014.5 |
| 20260507021558 | 39 | 286 | 0.0 | 0.0 | 0.00 | 0.00 | 0.00 | 100 | 1014.4 |
| 20260507020115 | 38 | 286 | 0.0 | 0.0 | 0.00 | 0.00 | 0.00 | 100 | 1014.3 |
| 20260507014557 | 39 | 286 | 0.0 | 0.0 | 0.00 | 0.00 | 0.00 | 100 | 1014.2 |
| 20260507013045 | 38 | 286 | 0.0 | 0.0 | 0.00 | 0.00 | 0.00 | 100 | 1014.1 |
| 20260507011542 | 38 | 282 | 0.0 | 0.0 | 0.00 | 0.00 | 0.00 | 8 | 1014.1 |
| 20260507010034 | 38 | 283 | 0.0 | 0.0 | 0.00 | 0.00 | 0.00 | 17 | 1013.9 |
| 20260507004521 | 38 | 281 | 0.0 | 3.5 | 0.00 | 0.00 | 0.00 | 27 | 1013.9 |
| 20260507003016 | 39 | 246 | 0.0 | 0.0 | 0.00 | 0.00 | 0.00 | 47 | 1013.7 |
| 20260507001516 | 39 | 161 | 0.0 | 3.5 | 0.00 | 0.00 | 0.00 | 53 | 1013.8 |
| 20260507000008 | 39 | 229 | 0.0 | 0.9 | 0.00 | 0.00 | 0.00 | 54 | 1013.5 |
| 20260506234503 | 39 | 211 | 0.0 | 4.3 | 0.00 | 0.00 | 0.00 | 54 | 1013.7 |
| 20260506233100 | 40 | 234 | 0.0 | 5.2 | 0.00 | 0.00 | 0.00 | 54 | 1013.6 |
| 20260506233000 | 40 | 232 | 0.0 | 5.2 | 0.00 | 0.00 | 0.00 | 54 | 1013.5 |
| 20260506231609 | 40 | 175 | 1.7 | 6.1 | 0.00 | 0.00 | 0.00 | 54 | 1013.6 |
| 20260506230053 | 40 | 242 | 0.0 | 4.3 | 0.00 | 0.00 | 0.00 | 54 | 1013.6 |
| 20260506224538 | 40 | 235 | 0.9 | 6.1 | 0.00 | 0.00 | 0.00 | 55 | 1013.8 |
| 20260506223028 | 40 | 227 | 0.0 | 6.1 | 0.00 | 0.00 | 0.00 | 55 | 1013.8 |
| 20260506221526 | 40 | 221 | 0.0 | 5.2 | 0.00 | 0.00 | 0.00 | 55 | 1013.7 |
| 20260506220028 | 41 | 232 | 0.9 | 8.7 | 0.00 | 0.00 | 0.00 | 54 | 1013.7 |
| 20260506214516 | 41 | 247 | 0.9 | 6.1 | 0.00 | 0.00 | 0.00 | 53 | 1013.6 |
| 20260506213011 | 41 | 244 | 1.7 | 8.7 | 0.00 | 0.00 | 0.00 | 53 | 1013.5 |
| 20260506211508 | 41 | 258 | 1.7 | 6.1 | 0.00 | 0.00 | 0.00 | 53 | 1013.5 |
| 20260506210054 | 41 | 205 | 2.6 | 8.7 | 0.00 | 0.00 | 0.00 | 52 | 1013.6 |
| 20260506204542 | 41 | 225 | 1.7 | 7.8 | 0.00 | 0.00 | 0.00 | 52 | 1013.5 |
| 20260506203017 | 41 | 244 | 1.7 | 8.7 | 0.00 | 0.00 | 0.00 | 52 | 1013.7 |
| 20260506201526 | 41 | 251 | 2.6 | 7.8 | 0.00 | 0.00 | 0.00 | 52 | 1013.7 |
| 20260506200009 | 41 | 253 | 1.7 | 8.7 | 0.00 | 0.00 | 0.00 | 52 | 1013.8 |
| 20260506194507 | 41 | 236 | 2.6 | 8.7 | 0.00 | 0.00 | 0.00 | 52 | 1013.8 |
| 20260506193114 | 41 | 230 | 3.5 | 9.6 | 0.00 | 0.00 | 0.00 | 51 | 1013.8 |
| 20260506191611 | 41 | 262 | 3.5 | 8.7 | 0.00 | 0.00 | 0.00 | 50 | 1013.7 |
| 20260506190052 | 41 | 236 | 1.7 | 9.6 | 0.00 | 0.00 | 0.00 | 49 | 1013.9 |
| 20260506184559 | 41 | 254 | 3.5 | 8.7 | 0.00 | 0.00 | 0.00 | 48 | 1013.8 |
| 20260506183032 | 41 | 240 | 2.6 | 7.8 | 0.00 | 0.00 | 0.00 | 48 | 1013.7 |
| 20260506181525 | 41 | 250 | 3.5 | 10.4 | 0.00 | 0.00 | 0.00 | 48 | 1013.8 |
| 20260506180025 | 41 | 227 | 4.3 | 7.8 | 0.00 | 0.00 | 0.00 | 47 | 1013.9 |
| 20260506174524 | 42 | 253 | 3.5 | 8.7 | 0.00 | 0.00 | 0.00 | 45 | 1013.8 |
| 20260506173013 | 42 | 254 | 3.5 | 7.8 | 0.00 | 0.00 | 0.00 | 41 | 1014.0 |
| 20260506171513 | 41 | 250 | 2.6 | 8.7 | 0.00 | 0.00 | 0.00 | 39 | 1014.2 |
| 20260506170004 | 41 | 219 | 2.6 | 7.0 | 0.00 | 0.00 | 0.00 | 41 | 1014.2 |
| 20260506164600 | 41 | 257 | 3.5 | 7.0 | 0.00 | 0.00 | 0.00 | 31 | 1014.2 |
| 20260506163044 | 41 | 222 | 1.7 | 7.8 | 0.00 | 0.00 | 0.00 | 19 | 1014.3 |
| 20260506161542 | 41 | 223 | 2.6 | 6.1 | 0.00 | 0.00 | 0.00 | 10 | 1014.2 |
| 20260506160039 | 41 | 238 | 3.5 | 7.8 | 0.00 | 0.00 | 0.00 | 8 | 1014.1 |
| 20260506154530 | 41 | 259 | 2.6 | 7.8 | 0.00 | 0.00 | 0.00 | 100 | 1014.0 |
| 20260506153026 | 41 | 249 | 1.7 | 7.0 | 0.00 | 0.00 | 0.00 | 100 | 1013.9 |
| 20260506151525 | 41 | 250 | 2.6 | 7.8 | 0.00 | 0.00 | 0.00 | 100 | 1013.8 |
| 20260506150019 | 41 | 253 | 4.3 | 8.7 | 0.00 | 0.00 | 0.00 | 10 | 1013.6 |
| 20260506144512 | 40 | 270 | 4.3 | 8.7 | 0.00 | 0.00 | 0.00 | 15 | 1013.5 |
| 20260506143057 | 40 | 265 | 3.5 | 7.8 | 0.00 | 0.00 | 0.00 | 23 | 1013.4 |
| 20260506141552 | 39 | 261 | 3.5 | 7.0 | 0.00 | 0.00 | 0.00 | 24 | 1013.4 |
| 20260506140048 | 39 | 260 | 2.6 | 7.0 | 0.00 | 0.00 | 0.00 | 27 | 1013.3 |
| 20260506134543 | 39 | 231 | 2.6 | 7.0 | 0.00 | 0.00 | 0.00 | 29 | 1013.2 |
| 20260506133040 | 38 | 255 | 1.7 | 6.1 | 0.00 | 0.00 | 0.00 | 28 | 1013.1 |
| 20260506131543 | 38 | 239 | 1.7 | 7.8 | 0.00 | 0.00 | 0.00 | 28 | 1013.1 |
| 20260506130031 | 38 | 236 | 1.7 | 7.0 | 0.00 | 0.00 | 0.00 | 30 | 1013.0 |
| 20260506124531 | 38 | 214 | 0.9 | 6.1 | 0.00 | 0.00 | 0.00 | 37 | 1013.0 |
| 20260506123022 | 37 | 232 | 0.0 | 4.3 | 0.00 | 0.00 | 0.00 | 34 | 1012.8 |
| 20260506121505 | 37 | 247 | 0.9 | 6.1 | 0.00 | 0.00 | 0.00 | 31 | 1012.7 |
| 20260506120002 | 37 | 241 | 0.0 | 5.2 | 0.00 | 0.00 | 0.00 | 22 | 1012.6 |
| 20260506114558 | 36 | 246 | 0.9 | 4.3 | 0.00 | 0.00 | 0.00 | 4 | 1012.4 |
| 20260506113055 | 35 | 261 | 0.0 | 2.6 | 0.00 | 0.00 | 0.00 | 100 | 1012.2 |
| 20260506111548 | 33 | 234 | 0.0 | 1.7 | 0.00 | 0.00 | 0.00 | 100 | 1011.9 |
| 20260506110045 | 32 | 314 | 0.0 | 0.0 | 0.00 | 0.00 | 0.00 | 100 | 1011.9 |
| 20260506104544 | 31 | 315 | 0.0 | 0.0 | 0.00 | 0.00 | 0.00 | 100 | 1011.8 |
| 20260506103038 | 31 | 315 | 0.0 | 0.0 | 0.00 | 0.00 | 0.00 | 100 | 1011.8 |
| 20260506101518 | 30 | 315 | 0.0 | 0.0 | 0.00 | 0.00 | 0.00 | 100 | 1011.7 |
| 20260506100020 | 30 | 315 | 0.0 | 0.0 | 0.00 | 0.00 | 0.00 | 100 | 1011.7 |